• Join FlightAware (Why Join?)
  • Login
  • US Flag 
09:32AM EST


 

Airport Tracker/Info


-or-


 

Live Flight TrackerFlight Track Log ✈ UPS1122 ✈ 04-May-2013 ✈ KBDL - KALB

Flight Track Log - Related Links

Times and Time Zones

All times are in EDT time to prevent confusion due to time zone crossing. See the UPS1122 flight status page for this flight to view local times or setup timezone preferences in your user account.

Time Position Orientation Groundspeed Altitude Reporting Facility
EDT Latitude Longitude Course Direction KTS MPH feet Rate Location/Type
07:20AM 41.9706 -72.7389 312° West 176 203 3,300  Level Boston Center
07:21AM 42.0142 -72.7978 315° West 237 273 6,300 2,976 Climbing Boston Center
07:22AM 42.0744 -72.8792 315° West 276 318 9,600 1,795 Climbing Boston Center
07:23AM 42.1386 -72.9636 316° Northwest 326 375 10,100 248 Climbing Boston Center
07:24AM 42.2028 -73.0511 315° West 345 397 10,100  Level Boston Center
07:25AM 42.2711 -73.1414 316° Northwest 336 387 10,100 -49 Level Boston Center
07:26AM 42.3392 -73.2378 314° West 334 384 10,000 -248 Descending Boston Center
07:27AM 42.3969 -73.3117 317° Northwest 288 331 9,600 -694 Descending Boston Center
07:28AM 42.4547 -73.3883 316° Northwest 278 320 8,600 -984 Descending Boston Center
07:29AM 42.5106 -73.4597 317° Northwest 284 327 7,600 -992 Descending Boston Center
07:30AM 42.5661 -73.5367 314° West 282 325 6,600 -992 Descending Boston Center
07:31AM 42.6172 -73.6139 312° West 276 318 5,600 -1,289 Descending Boston Center
07:32AM 42.6728 -73.6825 318° Northwest 268 308 4,000 -1,289 Descending Boston Center
07:33AM 42.7286 -73.7375 324° Northwest 229 264 3,000 -738 Descending Boston Center
07:34AM 42.7828 -73.7358 North 189 217 2,500 -248 Descending Boston Center
07:35AM 42.8369 -73.7397 357° North 189 217 2,500 -347 Level Boston Center
07:36AM 42.8447 -73.7881 282° West 140 161 1,800 -563 Descending Boston Center
07:37AM 42.8069 -73.8097 203° Southwest 132 152 1,300 -567 Descending Boston Center
07:38AM 42.7672 -73.8061 176° South 134 154 600 496 Descending Boston Center
07:39AM 42.7236 -73.8081 182° South 165 190 2,300 1,672 Climbing Boston Center